Anchorage Merrill, AK

8:44 AM AKDT on July 20, 2017 (GMT -0800)
Merrill

Weather History for PAMR - April, 2014

Change the Weather History Date:

Saturday, April 26, 2014

  Actual Average Record
Temperature  
Mean Temperature 42 °F -  
Max Temperature 48 °F 49 °F 64 °F (2005)
Min Temperature 36 °F 32 °F 28 °F (1999)
Degree Days  
Heating Degree Days 23    
Moisture  
Dew Point 29 °F    
Average Humidity 60    
Maximum Humidity 76    
Minimum Humidity 42    
Precipitation  
Precipitation 0.00 in - - ()
Sea Level Pressure  
Sea Level Pressure 29.40 in    
Wind  
Wind Speed 2 mph (NNW)    
Max Wind Speed 7 mph    
Max Gust Speed -    
Visibility 10 miles    
Events      
Averages and records for this station are not official NWS values.
T = Trace of Precipitation, MM = Missing Value Source: NWS Daily Summary

Daily Weather History Graph

Daily Weather History Graph

Search for Another Location

Airport or City:

Trip Planner

Search our weather history database for the weather conditions in past years. The results will help you decide how hot, cold, wet, or windy it might be!

Date:

Astronomy

Apr. 26, 2014 Rise Set
Actual Time 6:04 AM AKDT 9:51 PM AKDT
Civil Twilight 5:10 AM AKDT 10:45 PM AKDT
Nautical Twilight 3:48 AM AKDT 12:10 AM AKDT
Astronomical Twilight 2:29 AM AKDT Sun does not set
Moon 5:24 AM AKDT (4/26) 6:50 PM AKDT (4/26)
Length of Visible Light 17h 34m
Length of Day
15h 46m
Waning Crescent, 7% of the Moon is Illuminated
Apr 26
Waning Crescent
Apr 28
New
May 6
First Quarter
May 14
Full
May 21
Last Quarter

Hourly Weather History & Observations

Time (AKDT) Temp. Windchill Dew Point Humidity Pressure Visibility Wind Dir Wind Speed Gust Speed Precip Events Conditions
12:53 AM 41.0 °F 39.0 °F 30.0 °F 65% 29.45 in 10.0 mi WSW 3.5 mph - N/A   Overcast
1:53 AM 39.0 °F - 30.9 °F 73% 29.45 in 10.0 mi Calm Calm - N/A   Overcast
2:53 AM 37.9 °F - 30.0 °F 73% 29.45 in 10.0 mi Calm Calm - N/A   Overcast
3:53 AM 37.9 °F - 30.0 °F 73% 29.44 in 10.0 mi Calm Calm - N/A   Overcast
4:53 AM 37.0 °F 34.5 °F 30.0 °F 76% 29.43 in 10.0 mi East 3.5 mph - N/A   Overcast
5:53 AM 36.0 °F - 28.9 °F 76% 29.42 in 10.0 mi Calm Calm - N/A   Overcast
6:53 AM 37.9 °F 33.5 °F 28.9 °F 70% 29.40 in 10.0 mi Variable 5.8 mph - N/A   Overcast
7:53 AM 39.9 °F 37.8 °F 26.1 °F 58% 29.39 in 10.0 mi NNE 3.5 mph - N/A   Overcast
8:53 AM 42.1 °F 39.2 °F 25.0 °F 51% 29.39 in 10.0 mi NNE 4.6 mph - N/A   Overcast
9:53 AM 42.1 °F 39.2 °F 26.1 °F 53% 29.39 in 10.0 mi NNW 4.6 mph - N/A   Overcast
10:53 AM 43.0 °F - 28.0 °F 56% 29.39 in 10.0 mi Calm Calm - N/A   Mostly Cloudy
11:53 AM 44.1 °F 40.1 °F 26.1 °F 49% 29.39 in 10.0 mi NNW 6.9 mph - N/A   Scattered Clouds
12:53 PM 48.0 °F - 26.1 °F 42% 29.38 in 10.0 mi NNE 3.5 mph - N/A   Mostly Cloudy
1:53 PM 46.9 °F - 27.0 °F 46% 29.39 in 10.0 mi South 5.8 mph - N/A   Mostly Cloudy
2:53 PM 46.0 °F - 28.0 °F 50% 29.39 in 10.0 mi Calm Calm - N/A   Mostly Cloudy
3:53 PM 46.9 °F - 27.0 °F 46% 29.39 in 10.0 mi North 4.6 mph - N/A   Scattered Clouds
4:53 PM 46.9 °F - 28.9 °F 50% 29.37 in 10.0 mi WNW 4.6 mph - N/A   Mostly Cloudy
5:53 PM 46.0 °F 44.8 °F 30.0 °F 54% 29.37 in 10.0 mi WSW 3.5 mph - N/A   Clear
6:53 PM 46.9 °F - 28.9 °F 50% 29.38 in 10.0 mi Calm Calm - N/A   Clear
7:53 PM 45.0 °F - 30.9 °F 58% 29.37 in 10.0 mi Calm Calm - N/A   Clear
8:53 PM 43.0 °F - 30.9 °F 62% 29.39 in 10.0 mi Calm Calm - N/A   Clear
9:53 PM 43.0 °F - 30.9 °F 62% 29.39 in 10.0 mi Calm Calm - N/A   Overcast
10:53 PM 42.1 °F - 32.0 °F 67% 29.39 in 10.0 mi Calm Calm - N/A   Overcast
11:53 PM 39.9 °F - 30.9 °F 70% 29.39 in 10.0 mi Calm Calm - N/A   Overcast